Location: *
(46.4833°N, 7.6667°E)
Time: 18:38:39
(UTC+00:00)

STARLINK-1039 - Pass Details

Date: 27 February 2020
Orbit: 548 x 551 km, 53.0° (Epoch: 29 March)

Event Time Altitude Azimuth Distance (km) Brightness Sun altitude
Rises 18:21:28 0° 235° (SW) 2,708 8.1 -12.8°
Reaches altitude 10° 18:23:41 10° 235° (SW) 1,818 7.1 -13.2°
Maximum altitude 18:27:49 82° 149° (SSE) 560 3.5 -13.9°
Enters shadow 18:30:34 21° 62° (ENE) 1,282 5.0 -14.4°
